Back to catalog

STARLINK-5282

AliveCommunicationsVLEO
NORAD 54169·PAYLOAD·🇺🇸 United States

Launched Oct 28, 2022 from Vandenberg Space Force Base

Loading…

Next Passes (next 24 hours)

TLE

FreshSource: CelesTrak SupGP

Epoch: Sep 14, 2026, 13:05 UTC

1 54169C 22141N   26257.54562500 -.00036228  00000+0 -10703-2 0  2576
2 54169  53.1565 221.8265 0001300  90.0944 357.5943 15.34409044    19

Track STARLINK-5282 in real time with AllMySat

Download on the App Store